Change the Weather History Date:

Sunday, February 3, 2013

  Actual Average Record
Temperature  
Mean Temperature 68 °F -  
Max Temperature 84 °F 78 °F 84 °F (2009)
Min Temperature 51 °F 51 °F 44 °F (2006)
Cooling Degree Days 2    
Growing Degree Days 18 (Base 50)    
Moisture  
Dew Point 56 °F    
Average Humidity 77    
Maximum Humidity 100    
Minimum Humidity 42    
Precipitation  
Precipitation 0.00 in - - ()
Sea Level Pressure  
Sea Level Pressure 29.93 in    
Wind  
Wind Speed 5 mph ()    
Max Wind Speed 13 mph    
Max Gust Speed -    
Visibility 8.9 miles    
Events Fog    
Averages and records for this station are not official NWS values.
T = Trace of Precipitation, MM = Missing Value Source: Averaged Metar Reports

Daily Weather History Graph

Daily Weather History Graph

Search for Another Location

Airport or City:

Trip Planner

Search our weather history database for the weather conditions in past years. The results will help you decide how hot, cold, wet, or windy it might be!

Date:

Astronomy

Feb. 03, 2013 Rise Set
Actual Time 6:43 AM MST 5:54 PM MST
Civil Twilight 6:20 AM MST 6:17 PM MST
Nautical Twilight 5:53 AM MST 6:44 PM MST
Astronomical Twilight 5:27 AM MST 7:11 PM MST
Moon 12:12 AM MST (2/3) 11:37 AM MST (2/3)
Length of Visible Light 11h 57m
Length of Day
11h 10m
Waning Gibbous, 48% of the Moon is Illuminated
Feb 3
Waning Gibbous
Feb 10
New
Feb 17
First Quarter
Feb 25
Full
Mar 4
Last Quarter

Hourly Weather History & Observations

Time (MST) Temp. Heat Index Dew Point Humidity Pressure Visibility Wind Dir Wind Speed Gust Speed Precip Events Conditions
12:50 AM 53.6 °F - 50.0 °F 88% 29.96 in 8.0 mi Calm Calm - N/A   Partly Cloudy
1:52 AM 51.8 °F - 48.2 °F 88% 29.95 in 8.0 mi Calm Calm - N/A   Partly Cloudy
2:46 AM 51.8 °F - 48.2 °F 88% 29.94 in 8.0 mi West 6.9 mph - N/A   Partly Cloudy
3:17 AM 51.8 °F - 48.2 °F 88% 29.93 in 0.5 mi NE 8.1 mph - N/A Fog Fog
3:43 AM 51.8 °F - 48.2 °F 88% 29.93 in 1.0 mi NNE 9.2 mph - N/A   Clear
4:45 AM 53.6 °F - 50.0 °F 88% 29.95 in 2.0 mi North 9.2 mph - N/A   Clear
5:43 AM 53.6 °F - 51.8 °F 94% 29.92 in 2.0 mi NNE 8.1 mph - N/A   Clear
6:46 AM 51.8 °F - 50.0 °F 94% 29.94 in 10.0 mi North 6.9 mph - N/A   Partly Cloudy
7:48 AM 55.4 °F - 51.8 °F 88% 29.96 in 6.0 mi Calm Calm - N/A   Scattered Clouds
8:40 AM 80.6 °F 80.8 °F 57.2 °F 45% 29.97 in 12.0 mi NE 5.8 mph - N/A   Partly Cloudy
9:48 AM 69.8 °F - 60.8 °F 73% 29.99 in 12.0 mi WSW 6.9 mph - N/A   Scattered Clouds
10:42 AM 84.2 °F 83.8 °F 59.0 °F 42% 29.99 in 12.0 mi SW 6.9 mph - N/A   Scattered Clouds
11:45 AM 78.8 °F - 57.2 °F 47% 29.95 in 15.0 mi SSE 8.1 mph - N/A   Mostly Cloudy
12:47 PM 77.0 °F - 59.0 °F 54% 29.91 in 15.0 mi South 8.1 mph - N/A   Mostly Cloudy
1:46 PM 78.8 °F - 59.0 °F 51% 29.89 in 15.0 mi South 10.4 mph - N/A   Overcast
2:51 PM 75.2 °F - 60.8 °F 61% 29.87 in 15.0 mi SW 12.7 mph - N/A   Mostly Cloudy
3:44 PM 73.4 °F - 62.6 °F 69% 29.87 in 15.0 mi West 11.5 mph - N/A   Mostly Cloudy
4:49 PM 73.4 °F - 60.8 °F 65% 29.88 in 15.0 mi WSW 6.9 mph - N/A   Mostly Cloudy
5:47 PM 69.8 °F - 60.8 °F 73% 29.89 in 15.0 mi WSW 9.2 mph - N/A   Mostly Cloudy
6:40 PM 66.2 °F - 62.6 °F 88% 29.90 in 12.0 mi West 6.9 mph - N/A   Mostly Cloudy
7:47 PM 62.6 °F - 59.0 °F 88% 29.93 in 12.0 mi Calm Calm - N/A   Mostly Cloudy
8:46 PM 60.8 °F - 57.2 °F 88% 29.94 in 10.0 mi Calm Calm - N/A   Scattered Clouds
9:51 PM 57.2 °F - 55.4 °F 94% 29.95 in 0.5 mi East 5.8 mph - N/A Fog Fog
10:44 PM 55.4 °F - 55.4 °F 100% 29.94 in 0.5 mi NE 5.8 mph - N/A Fog Fog
11:40 PM 57.2 °F - 55.4 °F 94% 29.95 in 1.0 mi NNW 8.1 mph - N/A   Scattered Clouds